EW9310 Weather Reports


time (UTC)temp
C
wind
direction
speed
KPH
gust
KPH
rain 1hr
cm
rain 24hr
cm
rain mn
cm
humidity
%
barometer
mb
20260505041521 16 219 1.6 4.8 0.00 0.00 0.00 50 1003.5
20260505041004 16 219 0.0 4.8 0.00 0.00 0.00 50 1003.5
20260505040506 16 271 1.6 8.0 0.00 0.00 0.00 50 1003.4
20260505040013 16 190 1.6 8.0 0.00 0.00 0.00 51 1003.4
20260505035508 16 242 1.6 4.8 0.00 0.00 0.00 51 1003.4
20260505035007 15 248 1.6 6.4 0.00 0.00 0.00 52 1003.4
20260505034515 15 255 1.6 6.4 0.00 0.00 0.00 51 1003.3
20260505034010 15 248 0.0 3.2 0.00 0.00 0.00 52 1003.2
20260505033503 16 248 0.0 3.2 0.00 0.00 0.00 50 1003.3
20260505033016 16 225 1.6 3.2 0.00 0.00 0.00 50 1003.3
20260505032505 16 230 1.6 4.8 0.00 0.00 0.00 50 1003.3
20260505032004 16 241 1.6 6.4 0.00 0.00 0.00 50 1003.4
20260505031516 16 241 1.6 6.4 0.00 0.00 0.00 51 1003.3
20260505031006 15 244 1.6 3.2 0.00 0.00 0.00 52 1003.3
20260505030510 15 232 1.6 3.2 0.00 0.00 0.00 52 1003.3
20260505030019 15 244 0.0 3.2 0.00 0.00 0.00 54 1003.2
20260505025507 15 244 1.6 3.2 0.00 0.00 0.00 54 1003.3
20260505025004 14 241 1.6 3.2 0.00 0.00 0.00 57 1003.3
20260505024517 13 230 1.6 3.2 0.00 0.00 0.00 62 1003.3
20260505024003 13 227 0.0 3.2 0.00 0.00 0.00 64 1003.3
20260505023505 13 212 0.0 3.2 0.00 0.00 0.00 64 1003.3
20260505023022 13 212 0.0 3.2 0.00 0.00 0.00 66 1003.4
20260505022506 13 212 0.0 3.2 0.00 0.00 0.00 65 1003.4
20260505022007 13 213 0.0 3.2 0.00 0.00 0.00 67 1003.4
20260505021519 13 212 0.0 3.2 0.00 0.00 0.00 66 1003.5
20260505021003 13 212 0.0 3.2 0.00 0.00 0.00 66 1003.4
20260505020506 13 212 0.0 3.2 0.00 0.00 0.00 65 1003.4
20260505020017 13 212 0.0 3.2 0.00 0.00 0.00 64 1003.4
20260505015506 13 212 0.0 3.2 0.00 0.00 0.00 62 1003.4
20260505015006 14 212 0.0 3.2 0.00 0.00 0.00 62 1003.4
20260505014520 14 212 0.0 3.2 0.00 0.03 0.00 61 1003.4
20260505014005 14 213 0.0 0.0 0.00 0.03 0.00 61 1003.4
20260505013508 14 212 0.0 3.2 0.00 0.03 0.00 59 1003.4
20260505013027 15 213 0.0 3.2 0.00 0.03 0.00 58 1003.4
20260505012505 15 212 0.0 3.2 0.00 0.03 0.00 57 1003.5
20260505012004 15 212 0.0 1.6 0.00 0.05 0.00 57 1003.5
20260505011515 15 212 0.0 0.0 0.00 0.05 0.00 56 1003.5
20260505011003 15 212 0.0 0.0 0.00 0.05 0.00 54 1003.6
20260505010505 15 212 0.0 3.2 0.00 0.05 0.00 53 1003.5
20260505010029 15 212 0.0 3.2 0.00 0.05 0.00 52 1003.5
20260505005507 16 212 0.0 3.2 0.00 0.05 0.00 53 1003.5
20260505005007 16 212 0.0 3.2 0.00 0.05 0.00 52 1003.5
20260505004522 16 213 0.0 0.0 0.00 0.05 0.00 51 1003.5
20260505004009 17 212 0.0 0.0 0.00 0.05 0.00 49 1003.4
20260505003502 17 212 0.0 0.0 0.00 0.05 0.00 49 1003.5
20260505003010 17 212 0.0 0.0 0.00 0.05 0.00 46 1003.6
20260505002504 17 212 0.0 0.0 0.00 0.05 0.00 46 1003.6
20260505002008 18 212 0.0 0.0 0.00 0.05 0.00 47 1003.7
20260505001516 18 212 0.0 0.0 0.00 0.05 0.00 46 1003.6
20260505001006 18 212 0.0 0.0 0.00 0.05 0.00 46 1003.6
20260505000509 19 212 0.0 0.0 0.00 0.05 0.00 44 1003.6
20260505000032 20 212 0.0 0.0 0.00 0.05 0.00 43 1003.6
20260504235507 20 212 0.0 0.0 0.00 0.05 0.00 41 1003.5
20260504235006 20 213 0.0 3.2 0.00 0.05 0.00 40 1003.5
20260504234521 21 213 0.0 3.2 0.00 0.05 0.00 39 1003.4
20260504234004 21 212 0.0 1.6 0.00 0.05 0.00 37 1003.3
20260504233506 21 212 0.0 3.2 0.00 0.05 0.00 37 1003.3
20260504233008 21 212 0.0 3.2 0.00 0.05 0.00 35 1003.3
20260504232505 22 212 0.0 3.2 0.00 0.05 0.00 34 1003.3
20260504232008 22 232 0.0 3.2 0.00 0.05 0.00 33 1003.3
20260504231516 22 232 1.6 6.4 0.00 0.05 0.00 33 1003.3
20260504231009 22 218 3.2 6.4 0.00 0.05 0.00 32 1003.2
20260504230508 22 212 1.6 6.4 0.00 0.05 0.00 32 1003.3
20260504230035 22 243 1.6 8.0 0.00 0.05 0.00 32 1003.3
20260504225506 22 256 3.2 8.0 0.00 0.05 0.00 31 1003.4
20260504225007 23 191 0.0 11.3 0.00 0.05 0.00 31 1003.3
20260504224523 23 248 3.2 17.7 0.00 0.05 0.00 31 1003.3
20260504224004 23 216 3.2 17.7 0.00 0.05 0.00 31 1003.4
20260504223503 23 232 3.2 14.5 0.00 0.05 0.00 32 1003.5
20260504223021 23 192 6.4 14.5 0.00 0.05 0.00 31 1003.6
20260504222507 23 268 6.4 14.5 0.00 0.05 0.00 31 1003.5
20260504222006 23 186 6.4 11.3 0.00 0.05 0.00 31 1003.6
20260504221539 23 186 3.2 14.5 0.00 0.05 0.00 31 1003.6
20260504221007 23 257 4.8 14.5 0.00 0.05 0.00 32 1003.6
20260504220508 23 286 3.2 9.7 0.00 0.05 0.00 32 1003.6
20260504220023 23 5 3.2 14.5 0.00 0.05 0.00 32 1003.7
20260504215512 23 233 1.6 14.5 0.00 0.05 0.00 34 1003.8
20260504215013 23 204 1.6 12.9 0.00 0.05 0.00 35 1003.8
20260504214508 23 259 3.2 19.3 0.00 0.05 0.00 32 1003.7
20260504214007 23 205 8.0 19.3 0.00 0.05 0.00 33 1003.8
20260504213503 23 187 3.2 24.1 0.00 0.05 0.00 34 1003.8
20260504213016 23 251 11.3 24.1 0.00 0.05 0.00 32 1003.8
20260504212508 23 244 3.2 16.1 0.00 0.05 0.00 36 1003.8
20260504212009 23 254 4.8 14.5 0.00 0.05 0.00 34 1003.8
20260504211525 23 321 8.0 19.3 0.00 0.05 0.00 33 1003.9
20260504211007 23 245 1.6 19.3 0.00 0.05 0.00 34 1003.8
20260504210509 23 267 6.4 12.9 0.00 0.05 0.00 34 1003.9
20260504210024 23 217 6.4 11.3 0.00 0.05 0.00 35 1003.8
20260504205511 23 215 4.8 11.3 0.00 0.05 0.00 37 1003.8
20260504205008 22 195 6.4 14.5 0.00 0.05 0.00 36 1003.9
20260504204527 22 204 8.0 22.5 0.00 0.05 0.00 38 1003.9
20260504204003 22 249 4.8 22.5 0.00 0.05 0.00 36 1003.9
20260504203506 22 202 4.8 17.7 0.00 0.05 0.00 39 1004.1
20260504203018 22 296 3.2 17.7 0.00 0.05 0.00 38 1004.0
20260504202507 23 169 6.4 16.1 0.00 0.05 0.00 36 1004.1
20260504202008 22 196 8.0 19.3 0.00 0.05 0.00 35 1004.2
20260504201524 22 241 9.7 19.3 0.00 0.05 0.00 36 1004.2
20260504201011 22 194 6.4 17.7 0.00 0.05 0.00 37 1004.4
20260504200513 22 251 4.8 17.7 0.00 0.05 0.00 36 1004.3
20260504200023 22 229 3.2 19.3 0.00 0.05 0.00 37 1004.3
20260504195507 22 216 8.0 19.3 0.00 0.05 0.00 35 1004.5
20260504195003 23 223 8.0 19.3 0.00 0.05 0.00 37 1004.6
20260504194513 22 303 3.2 20.9 0.00 0.05 0.00 38 1004.5
20260504194008 22 262 6.4 20.9 0.00 0.05 0.00 37 1004.7
20260504193508 22 258 8.0 20.9 0.00 0.05 0.00 39 1004.5
20260504193026 22 284 6.4 24.1 0.00 0.05 0.00 39 1004.8
20260504192510 22 220 9.7 22.5 0.00 0.05 0.00 37 1004.8
20260504192012 21 247 6.4 27.4 0.00 0.05 0.00 39 1004.7
20260504191534 21 252 16.1 27.4 0.00 0.05 0.00 37 1004.8
20260504191008 22 244 4.8 17.7 0.00 0.05 0.00 39 1004.9
20260504190507 21 221 9.7 17.7 0.00 0.05 0.00 40 1005.0
20260504190025 21 276 3.2 19.3 0.00 0.05 0.00 42 1005.1
20260504185504 21 259 9.7 24.1 0.00 0.05 0.00 41 1005.1
20260504185007 21 221 9.7 24.1 0.00 0.05 0.00 40 1005.1
20260504184519 21 223 11.3 24.1 0.00 0.05 0.00 43 1005.1
20260504184002 21 263 8.0 19.3 0.00 0.05 0.00 42 1005.2
20260504183502 21 246 6.4 19.3 0.00 0.05 0.00 41 1005.2
20260504183004 21 209 4.8 19.3 0.00 0.05 0.00 41 1005.2
20260504182512 21 244 4.8 14.5 0.00 0.05 0.00 43 1005.2
20260504182003 21 203 4.8 19.3 0.00 0.05 0.00 40 1005.3
20260504181513 21 292 3.2 19.3 0.00 0.05 0.00 43 1005.4
20260504181003 21 300 11.3 19.3 0.00 0.05 0.00 40 1005.6
20260504180510 21 269 8.0 20.9 0.00 0.05 0.00 41 1005.6
20260504180016 20 235 8.0 25.7 0.00 0.05 0.00 42 1005.8
20260504175507 20 277 12.9 25.7 0.00 0.05 0.00 42 1005.9
20260504175010 20 260 8.0 24.1 0.00 0.05 0.00 44 1005.8
20260504174524 20 214 8.0 24.1 0.00 0.05 0.00 42 1005.8
20260504174003 20 316 9.7 24.1 0.00 0.05 0.00 41 1005.9
20260504173503 20 319 6.4 25.7 0.00 0.05 0.00 43 1005.8
20260504173004 20 218 12.9 25.7 0.00 0.05 0.00 42 1005.9
20260504172502 20 280 8.0 19.3 0.00 0.05 0.00 44 1005.9
20260504172010 20 191 6.4 24.1 0.00 0.05 0.00 47 1006.0
20260504171508 20 220 4.8 24.1 0.00 0.05 0.00 43 1006.0
20260504171006 19 244 8.0 27.4 0.00 0.05 0.00 46 1006.2
20260504170506 19 223 6.4 27.4 0.00 0.05 0.00 43 1006.2
20260504151009 17 244 12.9 22.5 0.00 0.05 0.00 46 1007.0
20260504150510 16 262 11.3 22.5 0.00 0.05 0.00 46 1007.2
20260504141009 15 219 8.0 24.1 0.00 0.05 0.00 49 1007.4
20260504140507 15 191 11.3 22.5 0.00 0.05 0.00 47 1007.4
20260504130511 12 238 6.4 16.1 0.00 0.05 0.00 52 1007.9
20260504110513 11 291 4.8 14.5 0.00 0.05 0.00 55 1007.7
20260504100509 10 198 3.2 11.3 0.00 0.05 0.00 59 1007.6
20260504081529 10 239 3.2 12.9 0.00 0.05 0.00 56 1008.0
20260504081018 10 249 3.2 11.3 0.00 0.05 0.00 56 1008.1
20260504080505 10 234 3.2 12.9 0.00 0.05 0.00 56 1008.1
20260504050513 7 144 0.0 0.0 0.00 0.05 0.00 90 1009.0
20260504045507 7 144 0.0 0.0 0.00 0.05 0.00 90 1009.1
20260504045004 7 144 0.0 0.0 0.00 0.05 0.00 90 1009.1
20260504044525 7 144 0.0 0.0 0.00 0.05 0.00 90 1009.1
20260504044007 7 144 0.0 0.0 0.00 0.05 0.00 90 1009.2
20260504043504 7 144 0.0 0.0 0.00 0.05 0.00 90 1009.2
20260504043013 7 144 0.0 0.0 0.00 0.05 0.00 90 1009.2
20260504042505 7 144 0.0 0.0 0.00 0.05 0.00 90 1009.3
20260504042006 7 144 0.0 0.0 0.00 0.05 0.00 90 1009.3